GPS BIIF-12 (PRN 32)

Last updated on Sat Apr 11 2026 00:03:22 GMT+0000 (Coordinated Universal Time)

1 41328U 16007A 26100.05917514 .00000046 00000+0 00000+0 0 9991 2 41328 55.4811 92.1590 0096048 246.8273 112.1710 2.00555060 74477
UTC large
Height (km)
Speed (km/s)
/
Latitude / Longitude
Inclination (degrees)
Orbital Period (minutes)
Azimuth
Elevation
Range (km)
Doppler Factor

Next 0 passes for location: London (51.5072 / 0.1276)

Sorry there are no passes over London.
GPS BIIF-12 (PRN 32)